Time,TemperatureF,DewpointF,PressureIn,WindDirection,WindDirectionDegrees,WindSpeedMPH,WindSpeedGustMPH,Humidity,HourlyPrecipIn,Conditions,Clouds,dailyrainin,SoftwareType,DateUTC
2013-07-12 00:01:00,68.7,61.2,29.99,NE,36,1.0,1.0,77,0.00,,,0.00,WeatherCatV1.15B25,2013-07-12 04:01:00,
2013-07-12 00:02:00,68.6,61.1,29.99,NNE,30,0.0,1.0,77,0.00,,,0.00,WeatherCatV1.15B25,2013-07-12 04:02:00,
2013-07-12 00:03:00,68.6,61.1,29.99,NNE,29,0.0,1.0,77,0.00,,,0.00,WeatherCatV1.15B25,2013-07-12 04:03:00,
2013-07-12 00:05:00,68.6,61.5,30.00,NNE,30,0.0,0.0,78,0.00,,,0.00,WeatherCatV1.15B25,2013-07-12 04:05:00,
2013-07-12 00:10:00,68.5,61.4,29.99,WSW,237,0.0,0.0,78,0.00,,,0.00,WeatherCatV1.15B25,2013-07-12 04:10:00,
2013-07-12 00:15:00,68.5,61.7,30.00,ESE,105,0.0,0.0,79,0.00,,,0.00,WeatherCatV1.15B25,2013-07-12 04:15:00,
2013-07-12 00:19:00,68.5,61.7,30.00,NW,322,0.0,1.0,79,0.00,,,0.00,WeatherCatV1.15B25,2013-07-12 04:19:00,
2013-07-12 00:25:00,68.5,61.7,30.00,North,0,1.0,2.0,79,0.00,,,0.00,WeatherCatV1.15B25,2013-07-12 04:25:00,
2013-07-12 00:30:00,68.4,61.6,30.00,North,0,0.0,0.0,79,0.00,,,0.00,WeatherCatV1.15B25,2013-07-12 04:30:00,
2013-07-12 00:35:00,68.4,61.6,30.00,NNW,344,0.0,3.0,79,0.00,,,0.00,WeatherCatV1.15B25,2013-07-12 04:35:00,
2013-07-12 00:40:00,68.4,61.6,30.00,NNE,28,0.0,2.0,79,0.00,,,0.00,WeatherCatV1.15B25,2013-07-12 04:40:00,
2013-07-12 00:45:00,68.4,62.0,30.00,NNE,16,0.0,3.0,80,0.00,,,0.00,WeatherCatV1.15B25,2013-07-12 04:45:00,
2013-07-12 00:50:00,68.5,62.1,30.00,NNE,16,0.0,0.0,80,0.00,,,0.00,WeatherCatV1.15B25,2013-07-12 04:50:00,
2013-07-12 00:55:00,68.4,62.0,30.00,NNE,17,0.0,3.0,80,0.00,,,0.00,WeatherCatV1.15B25,2013-07-12 04:55:00,
2013-07-12 01:00:00,68.4,62.0,30.00,North,0,1.0,1.0,80,0.00,,,0.00,WeatherCatV1.15B25,2013-07-12 05:00:00,
2013-07-12 01:05:00,68.3,61.9,30.00,North,0,0.0,0.0,80,0.00,,,0.00,WeatherCatV1.15B25,2013-07-12 05:05:00,
2013-07-12 01:10:00,68.3,62.2,30.00,North,5,0.0,0.0,81,0.00,,,0.00,WeatherCatV1.15B25,2013-07-12 05:10:00,
2013-07-12 01:15:00,68.4,62.3,30.00,North,355,0.0,3.0,81,0.00,,,0.00,WeatherCatV1.15B25,2013-07-12 05:15:00,
2013-07-12 01:20:00,68.5,62.4,30.00,North,9,0.0,2.0,81,0.00,,,0.00,WeatherCatV1.15B25,2013-07-12 05:20:00,
2013-07-12 01:25:00,68.4,62.3,30.00,SSE,164,0.0,0.0,81,0.00,,,0.00,WeatherCatV1.15B25,2013-07-12 05:25:00,
2013-07-12 01:30:00,68.4,62.7,30.00,NNE,30,0.0,1.0,82,0.00,,,0.00,WeatherCatV1.15B25,2013-07-12 05:30:00,
2013-07-12 01:35:00,68.4,62.7,30.00,East,98,0.0,6.0,82,0.00,,,0.00,WeatherCatV1.15B25,2013-07-12 05:35:00,
2013-07-12 01:40:00,68.4,62.7,30.00,East,79,0.0,0.0,82,0.00,,,0.00,WeatherCatV1.15B25,2013-07-12 05:40:00,
2013-07-12 01:45:00,68.5,63.1,30.00,North,0,0.0,6.0,83,0.00,,,0.00,WeatherCatV1.15B25,2013-07-12 05:45:00,
2013-07-12 01:50:00,68.5,63.1,30.00,NNW,343,0.0,0.0,83,0.00,,,0.00,WeatherCatV1.15B25,2013-07-12 05:50:00,
2013-07-12 01:55:00,68.6,63.2,30.00,NNE,14,0.0,0.0,83,0.00,,,0.00,WeatherCatV1.15B25,2013-07-12 05:55:00,
2013-07-12 02:00:00,68.6,63.6,29.99,NE,45,1.0,3.0,84,0.00,,,0.00,WeatherCatV1.15B25,2013-07-12 06:00:00,
2013-07-12 02:05:00,68.7,63.7,29.99,North,0,3.0,7.0,84,0.00,,,0.00,WeatherCatV1.15B25,2013-07-12 06:05:00,
2013-07-12 02:10:00,68.9,63.9,30.00,North,9,0.0,0.0,84,0.00,,,0.00,WeatherCatV1.15B25,2013-07-12 06:10:00,
2013-07-12 02:15:00,68.9,63.9,29.99,NNE,28,0.0,3.0,84,0.00,,,0.00,WeatherCatV1.15B25,2013-07-12 06:15:00,
2013-07-12 02:21:00,68.9,63.9,29.99,NNE,25,0.0,1.0,84,0.00,,,0.00,WeatherCatV1.15B25,2013-07-12 06:21:00,
2013-07-12 02:26:00,68.9,63.9,29.99,NNW,344,3.0,6.0,84,0.00,,,0.00,WeatherCatV1.15B25,2013-07-12 06:26:00,
2013-07-12 02:31:00,69.0,64.0,30.00,NE,38,0.0,1.0,84,0.00,,,0.00,WeatherCatV1.15B25,2013-07-12 06:31:00,
2013-07-12 02:36:00,69.1,64.1,30.00,NNE,16,1.0,3.0,84,0.00,,,0.00,WeatherCatV1.15B25,2013-07-12 06:36:00,
2013-07-12 02:41:00,69.1,64.1,30.00,NNW,346,0.0,2.0,84,0.00,,,0.00,WeatherCatV1.15B25,2013-07-12 06:41:00,
2013-07-12 02:46:00,69.0,64.0,30.00,North,355,0.0,0.0,84,0.00,,,0.00,WeatherCatV1.15B25,2013-07-12 06:46:00,
2013-07-12 02:51:00,68.9,63.9,30.00,North,355,0.0,0.0,84,0.00,,,0.00,WeatherCatV1.15B25,2013-07-12 06:51:00,
2013-07-12 02:56:00,68.8,63.8,30.00,NNE,24,0.0,0.0,84,0.00,,,0.00,WeatherCatV1.15B25,2013-07-12 06:56:00,
2013-07-12 03:01:00,68.7,63.7,30.00,North,0,1.0,4.0,84,0.00,,,0.00,WeatherCatV1.15B25,2013-07-12 07:01:00,
2013-07-12 03:06:00,68.6,63.6,30.00,North,0,0.0,0.0,84,0.00,,,0.00,WeatherCatV1.15B25,2013-07-12 07:06:00,
2013-07-12 03:11:00,68.4,63.7,30.01,North,0,0.0,0.0,85,0.00,,,0.00,WeatherCatV1.15B25,2013-07-12 07:11:00,
2013-07-12 03:16:00,68.3,63.3,30.01,North,0,0.0,0.0,84,0.00,,,0.00,WeatherCatV1.15B25,2013-07-12 07:16:00,
2013-07-12 03:21:00,68.1,63.4,30.01,North,0,0.0,0.0,85,0.00,,,0.00,WeatherCatV1.15B25,2013-07-12 07:21:00,
2013-07-12 03:26:00,67.9,63.2,30.01,North,0,0.0,0.0,85,0.00,,,0.00,WeatherCatV1.15B25,2013-07-12 07:26:00,
2013-07-12 03:31:00,67.7,63.0,30.01,North,0,0.0,0.0,85,0.00,,,0.00,WeatherCatV1.15B25,2013-07-12 07:31:00,
2013-07-12 03:36:00,67.5,62.8,30.01,North,0,0.0,0.0,85,0.00,,,0.00,WeatherCatV1.15B25,2013-07-12 07:36:00,
2013-07-12 03:41:00,67.4,63.1,30.01,North,0,0.0,0.0,86,0.00,,,0.00,WeatherCatV1.15B25,2013-07-12 07:41:00,
2013-07-12 03:46:00,67.3,63.0,30.01,North,0,0.0,0.0,86,0.00,,,0.00,WeatherCatV1.15B25,2013-07-12 07:46:00,
2013-07-12 03:51:00,67.1,63.1,30.01,North,0,0.0,0.0,87,0.00,,,0.00,WeatherCatV1.15B25,2013-07-12 07:51:00,
2013-07-12 03:56:00,67.0,62.7,30.01,North,0,0.0,0.0,86,0.00,,,0.00,WeatherCatV1.15B25,2013-07-12 07:56:00,
2013-07-12 04:01:00,66.7,62.7,30.01,North,0,0.0,0.0,87,0.00,,,0.00,WeatherCatV1.15B25,2013-07-12 08:01:00,
2013-07-12 04:06:00,66.4,62.7,30.01,North,0,0.0,0.0,88,0.00,,,0.00,WeatherCatV1.15B25,2013-07-12 08:06:00,
2013-07-12 04:11:00,66.2,62.2,30.02,North,0,0.0,0.0,87,0.00,,,0.00,WeatherCatV1.15B25,2013-07-12 08:11:00,
2013-07-12 04:16:00,66.0,62.0,30.02,North,0,0.0,0.0,87,0.00,,,0.00,WeatherCatV1.15B25,2013-07-12 08:16:00,
2013-07-12 04:21:00,65.8,61.8,30.02,North,0,0.0,0.0,87,0.00,,,0.00,WeatherCatV1.15B25,2013-07-12 08:21:00,
2013-07-12 04:26:00,65.5,61.5,30.02,North,0,0.0,0.0,87,0.00,,,0.00,WeatherCatV1.15B25,2013-07-12 08:26:00,
2013-07-12 04:31:00,65.3,61.3,30.02,North,0,0.0,0.0,87,0.00,,,0.00,WeatherCatV1.15B25,2013-07-12 08:31:00,
2013-07-12 04:36:00,65.1,61.1,30.02,North,0,0.0,0.0,87,0.00,,,0.00,WeatherCatV1.15B25,2013-07-12 08:36:00,
2013-07-12 04:41:00,64.9,60.9,30.02,North,0,0.0,0.0,87,0.00,,,0.00,WeatherCatV1.15B25,2013-07-12 08:41:00,
2013-07-12 04:46:00,64.6,61.0,30.02,North,0,0.0,0.0,88,0.00,,,0.00,WeatherCatV1.15B25,2013-07-12 08:46:00,
2013-07-12 04:51:00,64.5,60.9,30.02,North,0,0.0,0.0,88,0.00,,,0.00,WeatherCatV1.15B25,2013-07-12 08:51:00,
2013-07-12 04:56:00,64.3,60.7,30.03,North,0,0.0,0.0,88,0.00,,,0.00,WeatherCatV1.15B25,2013-07-12 08:56:00,
2013-07-12 05:01:00,64.1,60.5,30.03,North,0,0.0,0.0,88,0.00,,,0.00,WeatherCatV1.15B25,2013-07-12 09:01:00,
2013-07-12 05:06:00,63.9,60.3,30.03,North,0,0.0,0.0,88,0.00,,,0.00,WeatherCatV1.15B25,2013-07-12 09:06:00,
2013-07-12 05:11:00,63.8,60.2,30.03,North,0,0.0,0.0,88,0.00,,,0.00,WeatherCatV1.15B25,2013-07-12 09:11:00,
2013-07-12 05:16:00,63.6,60.3,30.03,North,0,0.0,0.0,89,0.00,,,0.00,WeatherCatV1.15B25,2013-07-12 09:16:00,
2013-07-12 05:21:00,63.5,60.2,30.03,North,0,0.0,0.0,89,0.00,,,0.00,WeatherCatV1.15B25,2013-07-12 09:21:00,
2013-07-12 05:26:00,63.5,60.2,30.04,North,0,0.0,0.0,89,0.00,,,0.00,WeatherCatV1.15B25,2013-07-12 09:26:00,
2013-07-12 05:31:00,63.3,60.0,30.04,North,0,0.0,0.0,89,0.00,,,0.00,WeatherCatV1.15B25,2013-07-12 09:31:00,
2013-07-12 05:36:00,63.2,59.9,30.04,North,0,0.0,0.0,89,0.00,,,0.00,WeatherCatV1.15B25,2013-07-12 09:36:00,
2013-07-12 05:41:00,63.0,59.7,30.04,North,0,0.0,0.0,89,0.00,,,0.00,WeatherCatV1.15B25,2013-07-12 09:41:00,
2013-07-12 05:46:00,63.0,59.7,30.04,North,0,0.0,0.0,89,0.00,,,0.00,WeatherCatV1.15B25,2013-07-12 09:46:00,
2013-07-12 05:51:00,62.8,59.5,30.04,North,0,0.0,0.0,89,0.00,,,0.00,WeatherCatV1.15B25,2013-07-12 09:51:00,
2013-07-12 05:56:00,62.7,59.4,30.04,North,0,0.0,0.0,89,0.00,,,0.00,WeatherCatV1.15B25,2013-07-12 09:56:00,
2013-07-12 06:01:00,62.6,59.3,30.04,North,0,0.0,0.0,89,0.00,,,0.00,WeatherCatV1.15B25,2013-07-12 10:01:00,
2013-07-12 06:06:00,62.6,59.6,30.05,North,0,0.0,0.0,90,0.00,,,0.00,WeatherCatV1.15B25,2013-07-12 10:06:00,
2013-07-12 06:11:00,62.6,59.6,30.05,North,0,0.0,0.0,90,0.00,,,0.00,WeatherCatV1.15B25,2013-07-12 10:11:00,
2013-07-12 06:16:00,62.6,59.6,30.05,North,0,0.0,0.0,90,0.00,,,0.00,WeatherCatV1.15B25,2013-07-12 10:16:00,
2013-07-12 06:21:00,62.6,59.6,30.05,North,0,0.0,0.0,90,0.00,,,0.00,WeatherCatV1.15B25,2013-07-12 10:21:00,
2013-07-12 06:26:00,62.6,59.6,30.05,North,0,0.0,0.0,90,0.00,,,0.00,WeatherCatV1.15B25,2013-07-12 10:26:00,
2013-07-12 06:31:00,62.6,59.6,30.05,North,0,0.0,0.0,90,0.00,,,0.00,WeatherCatV1.15B25,2013-07-12 10:31:00,
2013-07-12 06:36:00,62.6,59.6,30.05,North,0,0.0,0.0,90,0.00,,,0.00,WeatherCatV1.15B25,2013-07-12 10:36:00,
2013-07-12 06:41:00,62.5,59.5,30.05,North,0,0.0,0.0,90,0.00,,,0.00,WeatherCatV1.15B25,2013-07-12 10:41:00,
2013-07-12 06:46:00,62.6,59.9,30.05,North,0,0.0,0.0,91,0.00,,,0.00,WeatherCatV1.15B25,2013-07-12 10:46:00,
2013-07-12 06:51:00,62.6,59.9,30.05,North,0,0.0,0.0,91,0.00,,,0.00,WeatherCatV1.15B25,2013-07-12 10:51:00,
2013-07-12 06:56:00,62.6,59.9,30.05,North,0,0.0,0.0,91,0.00,,,0.00,WeatherCatV1.15B25,2013-07-12 10:56:00,
2013-07-12 07:01:00,62.7,60.0,30.05,North,0,0.0,0.0,91,0.00,,,0.00,WeatherCatV1.15B25,2013-07-12 11:01:00,
2013-07-12 07:06:00,62.9,60.2,30.06,North,0,0.0,0.0,91,0.00,,,0.00,WeatherCatV1.15B25,2013-07-12 11:06:00,
2013-07-12 07:11:00,63.1,60.4,30.06,North,0,0.0,0.0,91,0.00,,,0.00,WeatherCatV1.15B25,2013-07-12 11:11:00,
2013-07-12 07:16:00,63.2,60.5,30.06,North,0,0.0,0.0,91,0.00,,,0.00,WeatherCatV1.15B25,2013-07-12 11:16:00,
2013-07-12 07:21:00,63.5,60.8,30.06,North,0,0.0,0.0,91,0.00,,,0.00,WeatherCatV1.15B25,2013-07-12 11:21:00,
2013-07-12 07:26:00,63.8,61.1,30.06,North,0,0.0,0.0,91,0.00,,,0.00,WeatherCatV1.15B25,2013-07-12 11:26:00,
2013-07-12 07:31:00,64.2,61.8,30.07,North,0,0.0,0.0,92,0.00,,,0.00,WeatherCatV1.15B25,2013-07-12 11:31:00,
2013-07-12 07:36:00,64.7,62.3,30.07,North,0,1.0,1.0,92,0.00,,,0.00,WeatherCatV1.15B25,2013-07-12 11:36:00,
2013-07-12 07:41:00,65.3,62.9,30.07,North,0,0.0,0.0,92,0.00,,,0.00,WeatherCatV1.15B25,2013-07-12 11:41:00,
2013-07-12 07:46:00,65.9,63.5,30.07,North,0,0.0,0.0,92,0.00,,,0.00,WeatherCatV1.15B25,2013-07-12 11:46:00,
2013-07-12 07:51:00,66.4,64.0,30.07,North,351,0.0,3.0,92,0.00,,,0.00,WeatherCatV1.15B25,2013-07-12 11:51:00,
2013-07-12 07:56:00,66.8,64.4,30.07,NNE,25,0.0,1.0,92,0.00,,,0.00,WeatherCatV1.15B25,2013-07-12 11:56:00,
2013-07-12 08:01:00,67.3,64.9,30.07,NNE,25,0.0,0.0,92,0.00,,,0.00,WeatherCatV1.15B25,2013-07-12 12:01:00,
2013-07-12 08:06:00,67.8,65.4,30.08,NE,35,0.0,5.0,92,0.00,,,0.00,WeatherCatV1.15B25,2013-07-12 12:06:00,
2013-07-12 08:11:00,68.5,65.8,30.08,NNE,20,1.0,6.0,91,0.00,,,0.00,WeatherCatV1.15B25,2013-07-12 12:11:00,
2013-07-12 08:16:00,68.8,66.1,30.08,NNE,18,0.0,2.0,91,0.00,,,0.00,WeatherCatV1.15B25,2013-07-12 12:16:00,
2013-07-12 08:21:00,69.1,66.0,30.08,NNW,332,0.0,1.0,90,0.00,,,0.00,WeatherCatV1.15B25,2013-07-12 12:21:00,
2013-07-12 08:26:00,69.4,66.0,30.08,NE,37,0.0,2.0,89,0.00,,,0.00,WeatherCatV1.15B25,2013-07-12 12:26:00,
2013-07-12 08:31:00,69.6,66.2,30.08,North,9,1.0,3.0,89,0.00,,,0.00,WeatherCatV1.15B25,2013-07-12 12:31:00,
2013-07-12 08:36:00,69.8,66.1,30.08,North,355,0.0,3.0,88,0.00,,,0.00,WeatherCatV1.15B25,2013-07-12 12:36:00,
2013-07-12 08:41:00,70.0,65.9,30.08,North,355,0.0,0.0,87,0.00,,,0.00,WeatherCatV1.15B25,2013-07-12 12:41:00,
2013-07-12 08:46:00,70.2,66.1,30.08,NNW,341,0.0,5.0,87,0.00,,,0.00,WeatherCatV1.15B25,2013-07-12 12:46:00,
2013-07-12 08:51:00,70.2,65.8,30.09,North,349,1.0,7.0,86,0.00,,,0.00,WeatherCatV1.15B25,2013-07-12 12:51:00,
2013-07-12 08:56:00,70.2,65.5,30.09,North,9,1.0,5.0,85,0.00,,,0.00,WeatherCatV1.15B25,2013-07-12 12:56:00,
2013-07-12 09:01:00,70.3,65.6,30.09,North,5,0.0,1.0,85,0.00,,,0.00,WeatherCatV1.15B25,2013-07-12 13:01:00,
2013-07-12 09:06:00,70.6,65.9,30.09,North,10,2.0,2.0,85,0.00,,,0.00,WeatherCatV1.15B25,2013-07-12 13:06:00,
2013-07-12 09:11:00,71.2,66.1,30.09,NNW,347,4.0,7.0,84,0.00,,,0.00,WeatherCatV1.15B25,2013-07-12 13:11:00,
2013-07-12 09:16:00,71.2,65.8,30.09,NNW,338,4.0,7.0,83,0.00,,,0.00,WeatherCatV1.15B25,2013-07-12 13:16:00,
2013-07-12 09:21:00,71.1,65.7,30.09,NNE,22,0.0,4.0,83,0.00,,,0.00,WeatherCatV1.15B25,2013-07-12 13:21:00,
2013-07-12 09:26:00,71.3,65.9,30.09,NE,44,2.0,3.0,83,0.00,,,0.00,WeatherCatV1.15B25,2013-07-12 13:26:00,
2013-07-12 09:31:00,71.4,66.0,30.09,North,0,2.0,2.0,83,0.00,,,0.00,WeatherCatV1.15B25,2013-07-12 13:31:00,
2013-07-12 09:36:00,71.6,66.2,30.09,NNE,17,2.0,6.0,83,0.00,,,0.00,WeatherCatV1.15B25,2013-07-12 13:36:00,
2013-07-12 09:41:00,71.9,66.1,30.09,North,0,1.0,7.0,82,0.00,,,0.00,WeatherCatV1.15B25,2013-07-12 13:41:00,
2013-07-12 09:46:00,72.2,66.4,30.09,ENE,62,0.0,5.0,82,0.00,,,0.00,WeatherCatV1.15B25,2013-07-12 13:46:00,
2013-07-12 09:51:00,72.7,66.5,30.09,North,0,3.0,5.0,81,0.00,,,0.00,WeatherCatV1.15B25,2013-07-12 13:51:00,
2013-07-12 09:56:00,73.2,66.6,30.08,NNW,348,0.0,4.0,80,0.00,,,0.00,WeatherCatV1.15B25,2013-07-12 13:56:00,
2013-07-12 10:01:00,73.5,66.6,30.08,NNE,20,0.0,3.0,79,0.00,,,0.00,WeatherCatV1.15B25,2013-07-12 14:01:00,
2013-07-12 10:06:00,73.8,66.5,30.08,NNW,344,2.0,4.0,78,0.00,,,0.00,WeatherCatV1.15B25,2013-07-12 14:06:00,
2013-07-12 10:11:00,73.7,66.4,30.08,North,355,0.0,0.0,78,0.00,,,0.00,WeatherCatV1.15B25,2013-07-12 14:11:00,
2013-07-12 10:16:00,74.1,67.2,30.08,NW,324,6.0,7.0,79,0.00,,,0.00,WeatherCatV1.15B25,2013-07-12 14:16:00,
2013-07-12 10:21:00,74.2,66.9,30.08,North,5,3.0,5.0,78,0.00,,,0.00,WeatherCatV1.15B25,2013-07-12 14:21:00,
2013-07-12 10:26:00,74.6,67.3,30.08,NW,316,3.0,4.0,78,0.00,,,0.00,WeatherCatV1.15B25,2013-07-12 14:26:00,
2013-07-12 10:31:00,74.5,67.2,30.08,NNW,327,4.0,6.0,78,0.00,,,0.00,WeatherCatV1.15B25,2013-07-12 14:31:00,
2013-07-12 10:36:00,74.1,66.4,30.08,NNW,336,4.0,7.0,77,0.00,,,0.00,WeatherCatV1.15B25,2013-07-12 14:36:00,
2013-07-12 10:41:00,74.0,67.1,30.08,ESE,118,0.0,1.0,79,0.00,,,0.00,WeatherCatV1.15B25,2013-07-12 14:41:00,
2013-07-12 10:46:00,74.2,66.9,30.08,NE,46,4.0,7.0,78,0.00,,,0.00,WeatherCatV1.15B25,2013-07-12 14:46:00,
2013-07-12 10:51:00,74.2,66.9,30.08,NNW,333,4.0,9.0,78,0.00,,,0.00,WeatherCatV1.15B25,2013-07-12 14:51:00,
2013-07-12 10:56:00,74.2,67.3,30.08,NNW,337,5.0,6.0,79,0.00,,,0.00,WeatherCatV1.15B25,2013-07-12 14:56:00,
2013-07-12 11:01:00,74.1,66.8,30.08,NNE,28,6.0,6.0,78,0.00,,,0.00,WeatherCatV1.15B25,2013-07-12 15:01:00,
2013-07-12 11:06:00,74.3,67.0,30.08,NNE,15,1.0,4.0,78,0.00,,,0.00,WeatherCatV1.15B25,2013-07-12 15:06:00,
2013-07-12 11:11:00,74.6,67.3,30.08,North,5,0.0,5.0,78,0.00,,,0.00,WeatherCatV1.15B25,2013-07-12 15:11:00,
2013-07-12 11:16:00,74.9,67.2,30.08,NE,45,1.0,6.0,77,0.00,,,0.00,WeatherCatV1.15B25,2013-07-12 15:16:00,
2013-07-12 11:21:00,75.1,67.8,30.08,North,350,0.0,4.0,78,0.00,,,0.00,WeatherCatV1.15B25,2013-07-12 15:21:00,
2013-07-12 11:26:00,75.0,66.9,30.08,NNW,344,4.0,7.0,76,0.00,,,0.00,WeatherCatV1.15B25,2013-07-12 15:26:00,
2013-07-12 11:31:00,74.6,66.9,30.08,NNW,331,2.0,9.0,77,0.00,,,0.00,WeatherCatV1.15B25,2013-07-12 15:31:00,
2013-07-12 11:36:00,74.4,67.1,30.08,NNW,330,3.0,6.0,78,0.00,,,0.00,WeatherCatV1.15B25,2013-07-12 15:36:00,
2013-07-12 11:41:00,74.3,67.0,30.08,NW,326,4.0,8.0,78,0.00,,,0.00,WeatherCatV1.15B25,2013-07-12 15:41:00,
2013-07-12 11:46:00,73.6,65.9,30.09,East,84,2.0,11.0,77,0.00,,,0.00,WeatherCatV1.15B25,2013-07-12 15:46:00,
2013-07-12 11:51:00,73.2,66.3,30.09,ENE,69,1.0,7.0,79,0.00,,,0.00,WeatherCatV1.15B25,2013-07-12 15:51:00,
2013-07-12 11:56:00,73.8,66.9,30.09,NNW,331,4.0,11.0,79,0.00,,,0.00,WeatherCatV1.15B25,2013-07-12 15:56:00,
2013-07-12 12:01:00,74.2,67.6,30.09,NNW,346,3.0,11.0,80,0.00,,,0.00,WeatherCatV1.15B25,2013-07-12 16:01:00,
2013-07-12 12:06:00,74.1,66.8,30.09,East,82,2.0,7.0,78,0.00,,,0.00,WeatherCatV1.15B25,2013-07-12 16:06:00,
2013-07-12 12:11:00,73.8,66.5,30.09,NW,320,6.0,6.0,78,0.00,,,0.00,WeatherCatV1.15B25,2013-07-12 16:11:00,
2013-07-12 12:16:00,73.7,66.4,30.09,North,5,3.0,13.0,78,0.00,,,0.00,WeatherCatV1.15B25,2013-07-12 16:16:00,
2013-07-12 12:21:00,74.2,67.6,30.09,ENE,62,1.0,5.0,80,0.00,,,0.00,WeatherCatV1.15B25,2013-07-12 16:21:00,
2013-07-12 12:26:00,74.3,67.4,30.09,NE,34,1.0,5.0,79,0.00,,,0.00,WeatherCatV1.15B25,2013-07-12 16:26:00,
2013-07-12 12:31:00,74.3,67.0,30.09,NNE,30,1.0,9.0,78,0.00,,,0.00,WeatherCatV1.15B25,2013-07-12 16:31:00,
2013-07-12 12:36:00,74.5,68.3,30.09,NNE,28,3.0,4.0,81,0.00,,,0.00,WeatherCatV1.15B25,2013-07-12 16:36:00,
2013-07-12 12:41:00,74.7,67.0,30.09,NNE,28,3.0,7.0,77,0.00,,,0.00,WeatherCatV1.15B25,2013-07-12 16:41:00,
2013-07-12 12:46:00,74.2,66.5,30.08,NNE,25,7.0,7.0,77,0.00,,,0.00,WeatherCatV1.15B25,2013-07-12 16:46:00,
2013-07-12 12:53:00,74.0,67.1,30.08,North,350,1.0,5.0,79,0.00,,,0.00,WeatherCatV1.15B25,2013-07-12 16:53:00,
2013-07-12 12:59:00,74.7,67.7,30.08,WSW,237,2.0,10.0,79,0.00,,,0.00,WeatherCatV1.15B25,2013-07-12 16:59:00,
2013-07-12 13:04:00,74.2,66.5,30.08,NW,312,4.0,8.0,77,0.00,,,0.00,WeatherCatV1.15B25,2013-07-12 17:04:00,
2013-07-12 13:09:00,74.2,66.9,30.08,North,355,9.0,10.0,78,0.00,,,0.00,WeatherCatV1.15B25,2013-07-12 17:09:00,
2013-07-12 13:14:00,74.9,67.9,30.08,ENE,66,0.0,2.0,79,0.00,,,0.00,WeatherCatV1.15B25,2013-07-12 17:14:00,
2013-07-12 13:19:00,75.5,67.4,30.08,NW,315,3.0,9.0,76,0.00,,,0.00,WeatherCatV1.15B25,2013-07-12 17:19:00,
2013-07-12 13:24:00,75.2,67.1,30.08,North,0,5.0,9.0,76,0.00,,,0.00,WeatherCatV1.15B25,2013-07-12 17:24:00,
2013-07-12 13:29:00,75.0,67.7,30.08,NNE,19,1.0,10.0,78,0.00,,,0.00,WeatherCatV1.15B25,2013-07-12 17:29:00,
2013-07-12 13:34:00,75.3,67.2,30.08,NW,326,5.0,10.0,76,0.00,,,0.00,WeatherCatV1.15B25,2013-07-12 17:34:00,
2013-07-12 13:39:00,76.2,68.4,30.08,North,0,10.0,10.0,77,0.00,,,0.00,WeatherCatV1.15B25,2013-07-12 17:39:00,
2013-07-12 13:44:00,75.8,67.3,30.08,NW,318,4.0,9.0,75,0.00,,,0.00,WeatherCatV1.15B25,2013-07-12 17:44:00,
2013-07-12 13:49:00,75.1,67.4,30.08,ENE,65,3.0,10.0,77,0.00,,,0.00,WeatherCatV1.15B25,2013-07-12 17:49:00,
2013-07-12 13:54:00,75.2,67.5,30.08,North,355,3.0,11.0,77,0.00,,,0.00,WeatherCatV1.15B25,2013-07-12 17:54:00,
2013-07-12 13:59:00,74.9,67.2,30.08,North,0,4.0,5.0,77,0.00,,,0.00,WeatherCatV1.15B25,2013-07-12 17:59:00,
2013-07-12 14:04:00,74.7,67.0,30.08,NNW,334,0.0,11.0,77,0.00,,,0.00,WeatherCatV1.15B25,2013-07-12 18:04:00,
2013-07-12 14:09:00,76.3,68.2,30.08,NE,39,4.0,4.0,76,0.00,,,0.00,WeatherCatV1.15B25,2013-07-12 18:09:00,
2013-07-12 14:14:00,76.0,65.9,30.08,NE,53,2.0,13.0,71,0.00,,,0.00,WeatherCatV1.15B25,2013-07-12 18:14:00,
2013-07-12 14:19:00,75.5,67.8,30.08,North,0,0.0,5.0,77,0.00,,,0.00,WeatherCatV1.15B25,2013-07-12 18:19:00,
2013-07-12 14:24:00,76.0,68.3,30.07,NNE,24,0.0,5.0,77,0.00,,,0.00,WeatherCatV1.15B25,2013-07-12 18:24:00,
2013-07-12 14:29:00,76.2,68.1,30.08,NE,44,2.0,13.0,76,0.00,,,0.00,WeatherCatV1.15B25,2013-07-12 18:29:00,
2013-07-12 14:34:00,75.9,67.8,30.08,East,84,3.0,6.0,76,0.00,,,0.00,WeatherCatV1.15B25,2013-07-12 18:34:00,
2013-07-12 14:39:00,75.3,67.2,30.07,North,355,2.0,8.0,76,0.00,,,0.00,WeatherCatV1.15B25,2013-07-12 18:39:00,
2013-07-12 14:45:00,75.3,67.9,30.07,NNE,14,0.0,7.0,78,0.00,,,0.00,WeatherCatV1.15B25,2013-07-12 18:45:00,
2013-07-12 14:50:00,75.2,67.1,30.07,North,0,5.0,10.0,76,0.00,,,0.00,WeatherCatV1.15B25,2013-07-12 18:50:00,
2013-07-12 14:55:00,75.4,68.4,30.07,NNW,329,3.0,9.0,79,0.00,,,0.00,WeatherCatV1.15B25,2013-07-12 18:55:00,
2013-07-12 15:00:00,75.6,67.1,30.08,North,0,10.0,10.0,75,0.00,,,0.00,WeatherCatV1.15B25,2013-07-12 19:00:00,
2013-07-12 15:05:00,75.9,67.0,30.07,NE,52,3.0,7.0,74,0.00,,,0.00,WeatherCatV1.15B25,2013-07-12 19:05:00,
2013-07-12 15:10:00,76.1,66.0,30.07,North,5,1.0,12.0,71,0.00,,,0.00,WeatherCatV1.15B25,2013-07-12 19:10:00,
2013-07-12 15:15:00,76.8,66.7,30.07,North,0,3.0,7.0,71,0.00,,,0.00,WeatherCatV1.15B25,2013-07-12 19:15:00,
2013-07-12 15:20:00,76.6,64.8,30.07,NE,34,10.0,13.0,67,0.00,,,0.00,WeatherCatV1.15B25,2013-07-12 19:20:00,
2013-07-12 15:25:00,76.3,65.8,30.07,NW,313,3.0,8.0,70,0.00,,,0.00,WeatherCatV1.15B25,2013-07-12 19:25:00,
2013-07-12 15:30:00,77.0,66.0,30.06,North,5,4.0,6.0,69,0.00,,,0.00,WeatherCatV1.15B25,2013-07-12 19:30:00,
2013-07-12 15:35:00,77.3,64.6,30.06,NNE,20,3.0,6.0,65,0.00,,,0.00,WeatherCatV1.15B25,2013-07-12 19:35:00,
2013-07-12 15:40:00,77.3,66.3,30.06,NNW,348,3.0,3.0,69,0.00,,,0.00,WeatherCatV1.15B25,2013-07-12 19:40:00,
2013-07-12 15:45:00,77.5,66.1,30.06,NE,49,1.0,10.0,68,0.00,,,0.00,WeatherCatV1.15B25,2013-07-12 19:45:00,
2013-07-12 15:50:00,77.7,65.4,30.06,North,0,5.0,8.0,66,0.00,,,0.00,WeatherCatV1.15B25,2013-07-12 19:50:00,
2013-07-12 15:55:00,77.6,65.3,30.06,NNE,30,2.0,11.0,66,0.00,,,0.00,WeatherCatV1.15B25,2013-07-12 19:55:00,
2013-07-12 16:00:00,77.7,67.5,30.06,NW,324,6.0,11.0,71,0.00,,,0.00,WeatherCatV1.15B25,2013-07-12 20:00:00,
2013-07-12 16:05:00,77.1,66.5,30.06,NNW,340,9.0,11.0,70,0.00,,,0.00,WeatherCatV1.15B25,2013-07-12 20:05:00,
2013-07-12 16:10:00,77.1,65.3,30.06,North,5,4.0,10.0,67,0.00,,,0.00,WeatherCatV1.15B25,2013-07-12 20:10:00,
2013-07-12 16:15:00,77.2,65.8,30.06,NNW,336,2.0,6.0,68,0.00,,,0.00,WeatherCatV1.15B25,2013-07-12 20:15:00,
2013-07-12 16:20:00,77.9,66.9,30.05,NW,325,1.0,6.0,69,0.00,,,0.00,WeatherCatV1.15B25,2013-07-12 20:20:00,
2013-07-12 16:26:00,77.3,65.9,30.05,NNE,13,9.0,9.0,68,0.00,,,0.00,WeatherCatV1.15B25,2013-07-12 20:26:00,
2013-07-12 16:31:00,77.4,66.4,30.05,ENE,61,2.0,5.0,69,0.00,,,0.00,WeatherCatV1.15B25,2013-07-12 20:31:00,
2013-07-12 16:36:00,77.2,66.2,30.05,ENE,66,0.0,5.0,69,0.00,,,0.00,WeatherCatV1.15B25,2013-07-12 20:36:00,
2013-07-12 16:41:00,76.9,64.2,30.05,ENE,59,0.0,7.0,65,0.00,,,0.00,WeatherCatV1.15B25,2013-07-12 20:41:00,
2013-07-12 16:47:00,77.1,64.8,30.05,ENE,72,3.0,4.0,66,0.00,,,0.00,WeatherCatV1.15B25,2013-07-12 20:47:00,
2013-07-12 16:53:00,77.2,65.4,30.05,North,5,2.0,9.0,67,0.00,,,0.00,WeatherCatV1.15B25,2013-07-12 20:53:00,
2013-07-12 16:58:00,77.0,66.0,30.05,North,0,3.0,7.0,69,0.00,,,0.00,WeatherCatV1.15B25,2013-07-12 20:58:00,
2013-07-12 17:03:00,77.0,66.4,30.05,NE,46,0.0,6.0,70,0.00,,,0.00,WeatherCatV1.15B25,2013-07-12 21:03:00,
2013-07-12 17:08:00,77.1,66.1,30.05,NNW,346,5.0,9.0,69,0.00,,,0.00,WeatherCatV1.15B25,2013-07-12 21:08:00,
2013-07-12 17:13:00,76.8,66.3,30.05,NNW,332,2.0,12.0,70,0.00,,,0.00,WeatherCatV1.15B25,2013-07-12 21:13:00,
2013-07-12 17:18:00,76.7,65.7,30.04,NNE,24,3.0,7.0,69,0.00,,,0.00,WeatherCatV1.15B25,2013-07-12 21:18:00,
2013-07-12 17:23:00,76.7,65.7,30.05,North,5,5.0,13.0,69,0.00,,,0.00,WeatherCatV1.15B25,2013-07-12 21:23:00,
2013-07-12 17:30:00,76.8,66.3,30.04,North,0,4.0,11.0,70,0.00,,,0.00,WeatherCatV1.15B25,2013-07-12 21:30:00,
2013-07-12 17:35:00,76.6,65.6,30.04,NNE,24,4.0,9.0,69,0.00,,,0.00,WeatherCatV1.15B25,2013-07-12 21:35:00,
2013-07-12 17:41:00,76.3,65.8,30.04,NE,42,0.0,9.0,70,0.00,,,0.00,WeatherCatV1.15B25,2013-07-12 21:41:00,
2013-07-12 17:46:00,76.5,65.6,30.05,North,355,4.0,9.0,69,0.00,,,0.00,WeatherCatV1.15B25,2013-07-12 21:46:00,
2013-07-12 17:51:00,76.4,65.9,30.05,NNW,333,4.0,7.0,70,0.00,,,0.00,WeatherCatV1.15B25,2013-07-12 21:51:00,
2013-07-12 17:56:00,76.6,65.6,30.05,NNE,22,2.0,7.0,69,0.00,,,0.00,WeatherCatV1.15B25,2013-07-12 21:56:00,
2013-07-12 18:01:00,76.6,65.2,30.05,North,9,0.0,11.0,68,0.00,,,0.00,WeatherCatV1.15B25,2013-07-12 22:01:00,
2013-07-12 18:06:00,76.5,65.1,30.05,NNW,340,5.0,12.0,68,0.00,,,0.00,WeatherCatV1.15B25,2013-07-12 22:06:00,
2013-07-12 18:11:00,76.4,65.5,30.05,North,355,6.0,12.0,69,0.00,,,0.00,WeatherCatV1.15B25,2013-07-12 22:11:00,
2013-07-12 18:16:00,76.5,65.6,30.05,NNW,342,0.0,10.0,69,0.00,,,0.00,WeatherCatV1.15B25,2013-07-12 22:16:00,
2013-07-12 18:21:00,76.7,65.7,30.05,NNE,13,3.0,5.0,69,0.00,,,0.00,WeatherCatV1.15B25,2013-07-12 22:21:00,
2013-07-12 18:26:00,76.8,65.8,30.05,NW,316,3.0,3.0,69,0.00,,,0.00,WeatherCatV1.15B25,2013-07-12 22:26:00,
2013-07-12 18:32:00,76.5,65.6,30.05,North,5,4.0,8.0,69,0.00,,,0.00,WeatherCatV1.15B25,2013-07-12 22:32:00,
2013-07-12 18:37:00,76.2,65.7,30.05,NNE,32,2.0,8.0,70,0.00,,,0.00,WeatherCatV1.15B25,2013-07-12 22:37:00,
2013-07-12 18:42:00,76.3,66.2,30.05,NNW,331,3.0,3.0,71,0.00,,,0.00,WeatherCatV1.15B25,2013-07-12 22:42:00,
2013-07-12 18:48:00,76.1,65.6,30.05,NE,53,0.0,6.0,70,0.00,,,0.00,WeatherCatV1.15B25,2013-07-12 22:48:00,
2013-07-12 18:53:00,76.2,66.1,30.05,NNE,33,0.0,6.0,71,0.00,,,0.00,WeatherCatV1.15B25,2013-07-12 22:53:00,
2013-07-12 18:59:00,76.3,66.2,30.06,North,9,3.0,7.0,71,0.00,,,0.00,WeatherCatV1.15B25,2013-07-12 22:59:00,
2013-07-12 19:04:00,76.1,66.0,30.06,NNW,336,5.0,5.0,71,0.00,,,0.00,WeatherCatV1.15B25,2013-07-12 23:04:00,
2013-07-12 19:09:00,76.1,66.4,30.05,NNW,330,5.0,5.0,72,0.00,,,0.00,WeatherCatV1.15B25,2013-07-12 23:09:00,
2013-07-12 19:14:00,76.0,65.9,30.05,NNW,344,0.0,6.0,71,0.00,,,0.00,WeatherCatV1.15B25,2013-07-12 23:14:00,
2013-07-12 19:19:00,75.9,65.8,30.05,North,0,1.0,14.0,71,0.00,,,0.00,WeatherCatV1.15B25,2013-07-12 23:19:00,
2013-07-12 19:24:00,75.6,65.9,30.06,NNE,19,4.0,7.0,72,0.00,,,0.00,WeatherCatV1.15B25,2013-07-12 23:24:00,
2013-07-12 19:31:00,75.0,65.7,30.06,NNW,331,6.0,6.0,73,0.00,,,0.00,WeatherCatV1.15B25,2013-07-12 23:31:00,
2013-07-12 19:36:00,74.7,65.8,30.06,North,5,3.0,5.0,74,0.00,,,0.00,WeatherCatV1.15B25,2013-07-12 23:36:00,
2013-07-12 19:43:00,74.5,66.0,30.05,NE,41,0.0,5.0,75,0.00,,,0.00,WeatherCatV1.15B25,2013-07-12 23:43:00,
2013-07-12 19:48:00,74.3,65.5,30.06,North,11,3.0,5.0,74,0.00,,,0.00,WeatherCatV1.15B25,2013-07-12 23:48:00,
2013-07-12 19:53:00,74.2,65.8,30.06,ENE,71,3.0,6.0,75,0.00,,,0.00,WeatherCatV1.15B25,2013-07-12 23:53:00,
2013-07-12 19:58:00,74.1,65.7,30.07,NNE,17,5.0,7.0,75,0.00,,,0.00,WeatherCatV1.15B25,2013-07-12 23:58:00,
2013-07-12 20:03:00,74.0,65.6,30.07,NNE,25,0.0,7.0,75,0.00,,,0.00,WeatherCatV1.15B25,2013-07-13 00:03:00,
2013-07-12 20:12:00,73.9,65.8,30.07,NNW,336,0.0,6.0,76,0.00,,,0.00,WeatherCatV1.15B25,2013-07-13 00:12:00,
2013-07-12 20:18:00,73.8,65.7,30.07,NNE,25,0.0,1.0,76,0.00,,,0.00,WeatherCatV1.15B25,2013-07-13 00:18:00,
2013-07-12 20:23:00,73.7,65.7,30.07,NNE,28,1.0,6.0,76,0.00,,,0.00,WeatherCatV1.15B25,2013-07-13 00:23:00,
2013-07-12 20:28:00,73.6,65.9,30.07,North,11,0.0,5.0,77,0.00,,,0.00,WeatherCatV1.15B25,2013-07-13 00:28:00,
2013-07-12 20:33:00,73.4,65.7,30.07,North,355,4.0,6.0,77,0.00,,,0.00,WeatherCatV1.15B25,2013-07-13 00:33:00,
2013-07-12 20:39:00,73.2,65.9,30.07,ENE,62,0.0,2.0,78,0.00,,,0.00,WeatherCatV1.15B25,2013-07-13 00:39:00,
2013-07-12 20:44:00,73.1,66.2,30.07,North,350,1.0,5.0,79,0.00,,,0.00,WeatherCatV1.15B25,2013-07-13 00:44:00,
2013-07-12 20:49:00,73.0,66.1,30.07,NNE,29,0.0,5.0,79,0.00,,,0.00,WeatherCatV1.15B25,2013-07-13 00:49:00,
2013-07-12 20:55:00,73.0,66.1,30.07,NNE,15,1.0,4.0,79,0.00,,,0.00,WeatherCatV1.15B25,2013-07-13 00:55:00,
2013-07-12 21:00:00,72.9,66.0,30.07,North,5,0.0,5.0,79,0.00,,,0.00,WeatherCatV1.15B25,2013-07-13 01:00:00,
2013-07-12 21:05:00,72.8,66.3,30.07,NNW,340,3.0,4.0,80,0.00,,,0.00,WeatherCatV1.15B25,2013-07-13 01:05:00,
2013-07-12 21:10:00,72.7,66.2,30.08,North,0,0.0,0.0,80,0.00,,,0.00,WeatherCatV1.15B25,2013-07-13 01:10:00,
2013-07-12 21:15:00,72.6,66.1,30.08,North,5,0.0,1.0,80,0.00,,,0.00,WeatherCatV1.15B25,2013-07-13 01:15:00,
2013-07-12 21:20:00,72.4,65.9,30.08,North,0,0.0,0.0,80,0.00,,,0.00,WeatherCatV1.15B25,2013-07-13 01:20:00,
2013-07-12 21:25:00,72.3,65.8,30.08,North,0,0.0,1.0,80,0.00,,,0.00,WeatherCatV1.15B25,2013-07-13 01:25:00,
2013-07-12 21:30:00,72.2,66.0,30.08,North,0,0.0,2.0,81,0.00,,,0.00,WeatherCatV1.15B25,2013-07-13 01:30:00,
2013-07-12 21:35:00,72.1,65.9,30.08,North,355,0.0,0.0,81,0.00,,,0.00,WeatherCatV1.15B25,2013-07-13 01:35:00,
2013-07-12 21:40:00,72.1,66.3,30.08,NE,34,2.0,2.0,82,0.00,,,0.00,WeatherCatV1.15B25,2013-07-13 01:40:00,
2013-07-12 21:46:00,71.8,65.6,30.08,North,5,0.0,2.0,81,0.00,,,0.00,WeatherCatV1.15B25,2013-07-13 01:46:00,
2013-07-12 21:51:00,71.7,65.5,30.09,North,5,0.0,0.0,81,0.00,,,0.00,WeatherCatV1.15B25,2013-07-13 01:51:00,
2013-07-12 21:56:00,71.5,65.0,30.08,NE,46,1.0,4.0,80,0.00,,,0.00,WeatherCatV1.15B25,2013-07-13 01:56:00,
2013-07-12 22:01:00,71.4,64.5,30.09,North,5,1.0,3.0,79,0.00,,,0.00,WeatherCatV1.15B25,2013-07-13 02:01:00,
2013-07-12 22:06:00,71.5,64.3,30.09,North,0,2.0,2.0,78,0.00,,,0.00,WeatherCatV1.15B25,2013-07-13 02:06:00,
2013-07-12 22:11:00,71.7,64.1,30.09,NNE,25,0.0,2.0,77,0.00,,,0.00,WeatherCatV1.15B25,2013-07-13 02:11:00,
2013-07-12 22:16:00,71.8,64.2,30.10,NNE,26,0.0,0.0,77,0.00,,,0.00,WeatherCatV1.15B25,2013-07-13 02:16:00,
2013-07-12 22:21:00,71.7,64.1,30.10,North,10,0.0,1.0,77,0.00,,,0.00,WeatherCatV1.15B25,2013-07-13 02:21:00,
2013-07-12 22:26:00,71.7,64.1,30.10,NNE,15,0.0,0.0,77,0.00,,,0.00,WeatherCatV1.15B25,2013-07-13 02:26:00,
2013-07-12 22:32:00,71.4,63.8,30.10,NNW,343,2.0,2.0,77,0.00,,,0.00,WeatherCatV1.15B25,2013-07-13 02:32:00,
2013-07-12 22:37:00,71.3,63.7,30.10,North,355,0.0,1.0,77,0.00,,,0.00,WeatherCatV1.15B25,2013-07-13 02:37:00,
2013-07-12 22:42:00,71.2,63.6,30.10,North,5,0.0,0.0,77,0.00,,,0.00,WeatherCatV1.15B25,2013-07-13 02:42:00,
2013-07-12 22:47:00,71.0,63.8,30.10,NNE,33,0.0,0.0,78,0.00,,,0.00,WeatherCatV1.15B25,2013-07-13 02:47:00,
2013-07-12 22:52:00,70.7,63.5,30.10,NNE,24,0.0,1.0,78,0.00,,,0.00,WeatherCatV1.15B25,2013-07-13 02:52:00,
2013-07-12 22:57:00,70.7,63.5,30.10,NNE,24,0.0,1.0,78,0.00,,,0.00,WeatherCatV1.15B25,2013-07-13 02:57:00,
2013-07-12 23:02:00,70.5,63.3,30.10,North,355,0.0,0.0,78,0.00,,,0.00,WeatherCatV1.15B25,2013-07-13 03:02:00,
2013-07-12 23:08:00,70.3,63.5,30.10,North,355,0.0,0.0,79,0.00,,,0.00,WeatherCatV1.15B25,2013-07-13 03:08:00,
2013-07-12 23:13:00,70.1,63.3,30.10,North,351,0.0,1.0,79,0.00,,,0.00,WeatherCatV1.15B25,2013-07-13 03:13:00,
2013-07-12 23:18:00,69.9,63.1,30.11,North,355,0.0,1.0,79,0.00,,,0.00,WeatherCatV1.15B25,2013-07-13 03:18:00,
2013-07-12 23:24:00,69.6,62.8,30.11,East,100,0.0,0.0,79,0.00,,,0.00,WeatherCatV1.15B25,2013-07-13 03:24:00,
2013-07-12 23:29:00,69.5,62.7,30.10,NW,311,0.0,0.0,79,0.00,,,0.00,WeatherCatV1.15B25,2013-07-13 03:29:00,
2013-07-12 23:34:00,69.4,62.6,30.11,NNW,348,0.0,0.0,79,0.00,,,0.00,WeatherCatV1.15B25,2013-07-13 03:34:00,
2013-07-12 23:40:00,69.2,62.4,30.11,NNW,348,0.0,1.0,79,0.00,,,0.00,WeatherCatV1.15B25,2013-07-13 03:40:00,
2013-07-12 23:45:00,69.0,62.2,30.11,NNW,348,0.0,0.0,79,0.00,,,0.00,WeatherCatV1.15B25,2013-07-13 03:45:00,
2013-07-12 23:50:00,68.8,62.0,30.10,NNW,348,0.0,0.0,79,0.00,,,0.00,WeatherCatV1.15B25,2013-07-13 03:50:00,
2013-07-12 23:55:00,68.6,61.8,30.10,NNW,348,0.0,0.0,79,0.00,,,0.00,WeatherCatV1.15B25,2013-07-13 03:55:00,